Weather History for KI75 - December, 2012

Change the Weather History Date:

Sunday, December 30, 2012

  Actual Average (KLWD) Record (KLWD)
Temperature  
Mean Temperature 27 °F 24 °F  
Max Temperature 41 °F 33 °F 64 °F (2004)
Min Temperature 13 °F 16 °F -13 °F (1968)
Degree Days  
Heating Degree Days 38 41  
Month to date heating degree days 1141  
Since 1 July heating degree days 2389  
Cooling Degree Days 0 0  
Month to date cooling degree days 0  
Year to date cooling degree days 946  
Moisture  
Dew Point 20 °F    
Average Humidity 71    
Maximum Humidity 90    
Minimum Humidity 51    
Precipitation  
Precipitation 0.00 in 0.04 in 0.71 in (2006)
Month to date precipitation 1.43  
Sea Level Pressure  
Sea Level Pressure 30.14 in    
Wind  
Wind Speed 9 mph (South)    
Max Wind Speed 23 mph    
Max Gust Speed 25 mph    
Visibility 10 miles    
Events      
T = Trace of Precipitation, MM = Missing Value Source: NWS Daily Summary

Daily Weather History Graph

Daily Weather History Graph

Search for Another Location

Airport or City:

Trip Planner

Search our weather history database for the weather conditions in past years. The results will help you decide how hot, cold, wet, or windy it might be!

Date:

Astronomy

Dec. 30, 2012 Rise Set
Actual Time 7:39 AM CST 4:55 PM CST
Civil Twilight 7:08 AM CST 5:26 PM CST
Nautical Twilight 6:33 AM CST 6:01 PM CST
Astronomical Twilight 6:00 AM CST 6:34 PM CST
Moon 7:28 PM CST 8:47 AM CST
Length of Visible Light 10h 18m
Length of Day
9h 16m
Waning Gibbous, 95% of the Moon is Illuminated
Dec 30
Waning Gibbous
Jan 4
Last Quarter
Jan 11
New
Jan 18
First Quarter
Jan 26
Full

Hourly Weather History & Observations

Time (CST) Temp. Windchill Dew Point Humidity Pressure Visibility Wind Dir Wind Speed Gust Speed Precip Events Conditions
12:15 AM 17.2 °F 7.8 °F 14.2 °F 88% 30.22 in 10.0 mi SW 6.9 mph - N/A   Clear
12:35 AM 17.6 °F 9.3 °F 14.5 °F 88% 30.22 in 10.0 mi SW 5.8 mph - N/A   Clear
12:55 AM 16.3 °F 6.7 °F 13.1 °F 87% 30.22 in 10.0 mi WSW 6.9 mph - N/A   Clear
1:15 AM 17.1 °F 8.7 °F 14.0 °F 88% 30.23 in 10.0 mi SW 5.8 mph - N/A   Clear
1:35 AM 16.0 °F 6.3 °F 12.9 °F 88% 30.24 in 10.0 mi SW 6.9 mph - N/A   Clear
1:55 AM 16.5 °F 6.9 °F 13.1 °F 86% 30.24 in 10.0 mi SW 6.9 mph - N/A   Clear
2:15 AM 14.7 °F 5.9 °F 11.7 °F 88% 30.25 in 10.0 mi SSW 5.8 mph - N/A   Clear
2:35 AM 17.4 °F 9.1 °F 14.4 °F 88% 30.25 in 10.0 mi SSW 5.8 mph - N/A   Clear
2:55 AM 15.8 °F 6.1 °F 12.7 °F 88% 30.26 in 10.0 mi SSW 6.9 mph - N/A   Clear
3:15 AM 17.2 °F 8.9 °F 14.0 °F 87% 30.26 in 10.0 mi South 5.8 mph - N/A   Clear
3:35 AM 16.7 °F 11.2 °F 14.0 °F 89% 30.26 in 10.0 mi South 3.5 mph - N/A   Clear
3:55 AM 15.6 °F 7.0 °F 12.7 °F 88% 30.24 in 10.0 mi South 5.8 mph - N/A   Clear
4:15 AM 15.1 °F 7.7 °F 12.6 °F 90% 30.24 in 10.0 mi South 4.6 mph - N/A   Clear
4:35 AM 15.8 °F 7.2 °F 13.3 °F 90% 30.23 in 10.0 mi South 5.8 mph - N/A   Clear
4:55 AM 13.5 °F 4.4 °F 10.8 °F 89% 30.24 in 10.0 mi South 5.8 mph - N/A   Clear
5:15 AM 14.0 °F 6.5 °F 11.7 °F 90% 30.24 in 10.0 mi SSE 4.6 mph - N/A   Clear
5:35 AM 14.4 °F 6.9 °F 11.8 °F 90% 30.24 in 10.0 mi South 4.6 mph - N/A   Clear
5:55 AM 14.0 °F 5.1 °F 11.5 °F 90% 30.24 in 10.0 mi South 5.8 mph - N/A   Clear
6:35 AM 16.2 °F 6.5 °F 13.5 °F 89% 30.24 in 10.0 mi South 6.9 mph - N/A   Clear
6:55 AM 15.8 °F 7.2 °F 13.1 °F 89% 30.23 in 10.0 mi South 5.8 mph - N/A   Clear
7:15 AM 16.7 °F 6.2 °F 14.0 °F 89% 30.23 in 10.0 mi South 8.1 mph - N/A   Clear
7:35 AM 17.4 °F 6.2 °F 14.4 °F 88% 30.24 in 10.0 mi SSW 9.2 mph - N/A   Clear
7:55 AM 17.6 °F 7.3 °F 14.5 °F 88% 30.24 in 10.0 mi SSW 8.1 mph - N/A   Clear
8:15 AM 19.2 °F 8.4 °F 15.8 °F 87% 30.24 in 10.0 mi SSW 9.2 mph - N/A   Clear
8:35 AM 20.3 °F 10.6 °F 16.3 °F 85% 30.23 in 10.0 mi SSW 8.1 mph - N/A   Clear
8:55 AM 20.8 °F 12.1 °F 16.7 °F 84% 30.24 in 10.0 mi South 6.9 mph - N/A   Clear
9:15 AM 22.8 °F 13.6 °F 18.1 °F 82% 30.23 in 10.0 mi South 8.1 mph - N/A   Clear
9:35 AM 24.6 °F 15.8 °F 19.4 °F 81% 30.23 in 10.0 mi South 8.1 mph - N/A   Clear
9:55 AM 26.4 °F 17.3 °F 20.3 °F 78% 30.23 in 10.0 mi South 9.2 mph - N/A   Clear
10:15 AM 28.0 °F 19.3 °F 21.0 °F 75% 30.24 in 10.0 mi South 9.2 mph - N/A   Clear
10:35 AM 30.2 °F 21.9 °F 21.9 °F 71% 30.23 in 10.0 mi South 9.2 mph - N/A   Clear
10:55 AM 32.0 °F 24.2 °F 22.8 °F 69% 30.22 in 10.0 mi South 9.2 mph - N/A   Clear
11:15 AM 33.6 °F 26.2 °F 23.5 °F 67% 30.21 in 10.0 mi South 9.2 mph - N/A   Clear
11:35 AM 35.1 °F 26.9 °F 23.4 °F 62% 30.19 in 10.0 mi South 11.5 mph - N/A   Clear
11:55 AM 35.6 °F 28.0 °F 23.7 °F 62% 30.17 in 10.0 mi South 10.4 mph - N/A   Clear
12:15 PM 35.8 °F 28.3 °F 23.9 °F 62% 30.16 in 10.0 mi South 10.4 mph - N/A   Clear
12:35 PM 36.5 °F 29.7 °F 24.4 °F 62% 30.13 in 10.0 mi South 9.2 mph - N/A   Clear
12:55 PM 37.4 °F 30.3 °F 23.9 °F 58% 30.12 in 10.0 mi South 10.4 mph - N/A   Clear
1:15 PM 38.1 °F 30.2 °F 23.9 °F 57% 30.11 in 10.0 mi South 12.7 mph 16.1 mph N/A   Clear
1:35 PM 38.3 °F 30.1 °F 23.5 °F 55% 30.09 in 10.0 mi South 13.8 mph 20.7 mph N/A   Clear
1:55 PM 39.0 °F 30.3 °F 23.7 °F 54% 30.08 in 10.0 mi South 16.1 mph 21.9 mph N/A   Clear
2:15 PM 40.1 °F 32.4 °F 24.6 °F 54% 30.06 in 10.0 mi South 13.8 mph 19.6 mph N/A   Clear
2:35 PM 41.0 °F 33.1 °F 24.3 °F 51% 30.06 in 10.0 mi South 15.0 mph 19.6 mph N/A   Clear
2:55 PM 41.0 °F 32.8 °F 23.9 °F 51% 30.05 in 10.0 mi South 16.1 mph - N/A   Clear
3:15 PM 40.3 °F 31.3 °F 24.1 °F 52% 30.04 in 10.0 mi South 18.4 mph 24.2 mph N/A   Clear
3:35 PM 40.1 °F 30.7 °F 24.1 °F 53% 30.03 in 10.0 mi SSE 19.6 mph 25.3 mph N/A   Clear
3:55 PM 40.1 °F 29.9 °F 23.4 °F 51% 30.02 in 10.0 mi SSE 23.0 mph - N/A   Clear
4:15 PM 39.6 °F 31.3 °F 23.4 °F 52% 30.02 in 10.0 mi South 15.0 mph 24.2 mph N/A   Clear
4:35 PM 38.8 °F 30.0 °F 23.9 °F 55% 30.02 in 10.0 mi South 16.1 mph 23.0 mph N/A   Clear
4:55 PM 38.3 °F 29.0 °F 23.9 °F 56% 30.02 in 10.0 mi South 17.3 mph 20.7 mph N/A   Clear
5:15 PM 38.3 °F 30.1 °F 24.1 °F 57% 30.01 in 10.0 mi South 13.8 mph 23.0 mph N/A   Clear
5:35 PM 38.3 °F 28.4 °F 24.6 °F 58% 30.02 in 10.0 mi South 19.6 mph 25.3 mph N/A   Clear
5:55 PM 37.9 °F 28.2 °F 25.0 °F 60% 30.03 in 10.0 mi South 18.4 mph 24.2 mph N/A   Clear
6:15 PM 37.8 °F 28.6 °F 25.3 °F 61% 30.02 in 10.0 mi South 16.1 mph 23.0 mph N/A   Clear
6:35 PM 37.8 °F 29.0 °F 25.3 °F 61% 30.02 in 10.0 mi South 15.0 mph 21.9 mph N/A   Clear
6:55 PM 37.9 °F 28.5 °F 25.5 °F 61% 30.02 in 10.0 mi South 17.3 mph - N/A   Clear
7:15 PM 37.6 °F 29.1 °F 25.7 °F 62% 30.02 in 10.0 mi South 13.8 mph - N/A   Clear
7:35 PM 37.4 °F 28.5 °F 25.7 °F 63% 30.01 in 10.0 mi South 15.0 mph 18.4 mph N/A   Clear
7:55 PM 37.4 °F 28.5 °F 25.5 °F 62% 30.01 in 10.0 mi South 15.0 mph - N/A   Clear
8:15 PM 37.6 °F 28.1 °F 25.5 °F 62% 30.01 in 10.0 mi SSW 17.3 mph - N/A   Clear
8:35 PM 38.7 °F 29.8 °F 24.8 °F 58% 30.01 in 10.0 mi SSW 16.1 mph 20.7 mph N/A   Clear
8:55 PM 38.8 °F 29.7 °F 25.0 °F 58% 30.01 in 10.0 mi SSW 17.3 mph 24.2 mph N/A   Clear
9:15 PM 38.7 °F 29.8 °F 25.5 °F 59% 30.02 in 10.0 mi SSW 16.1 mph 20.7 mph N/A   Clear
9:35 PM 38.8 °F 30.0 °F 25.0 °F 58% 30.02 in 10.0 mi SW 16.1 mph 21.9 mph N/A   Clear
9:55 PM 38.3 °F 30.9 °F 25.5 °F 60% 30.02 in 10.0 mi SW 11.5 mph - N/A   Clear
10:15 PM 37.4 °F 28.9 °F 26.2 °F 64% 30.03 in 10.0 mi SW 13.8 mph - N/A   Clear
10:35 PM 37.4 °F 29.8 °F 26.4 °F 65% 30.04 in 10.0 mi SW 11.5 mph - N/A   Clear
10:55 PM 37.4 °F 29.8 °F 26.1 °F 64% 30.03 in 10.0 mi SW 11.5 mph - N/A   Scattered Clouds
11:15 PM 36.7 °F 29.9 °F 26.4 °F 66% 30.03 in 10.0 mi SW 9.2 mph - N/A   Clear
11:35 PM 36.7 °F 28.9 °F 26.4 °F 66% 30.04 in 10.0 mi WSW 11.5 mph - N/A   Clear
11:55 PM 36.0 °F 29.0 °F 26.6 °F 69% 30.04 in 10.0 mi WSW 9.2 mph - N/A   Scattered Clouds